Regional Weather Roundup
Issued by NWS

Home | Current Version | Previous Version | Graphics & Text | Print | Product List | Glossary On
Versions: 1 2 3 4 5 6 7 8 9 10 11 12 13 14 15 16 17 18 19 20 21 22 23 24 25 26 27 28 29 30 31 32 33 34 35 36 37 38 39 40 41 42 43 44 45 46 47 48 49 50
000
ASUS43 KDTX 011201
RWRMI
MICHIGAN HOURLY REGIONAL WEATHER ROUNDUP
NATIONAL WEATHER SERVICE DETROIT/PONTIAC MI
800 AM EDT SUN MAY 01 2016

NOTE: "FAIR" INDICATES FEW OR NO CLOUDS BELOW 12,000 FEET WITH NO
SIGNIFICANT WEATHER AND/OR OBSTRUCTION TO VISIBILITY.

MIZ047>049-052>055-059>063-066>070-074>076-081>083-011300-
SOUTHEAST LOWER MICHIGAN

CITY           SKY/WX    TMP DP  RH WIND       PRES   REMARKS
ADRIAN         FOG       48  48 100 E7        29.92S VSB 3/4
6HR MIN TEMP:  48; 6HR MAX TEMP:  49; 6HR PCP: TRACE;

ALMA           LGT RAIN  43  43  99 N8        29.99R
ANN ARBOR      CLOUDY    48  47  96 NE7       29.93R FOG
BAD AXE        RAIN      42  42  98 NE9       30.00S
CARO           DRIZZLE   44  43  97 NE5       29.98S
DETROIT CITY   CLOUDY    47  46  97 NE7       29.94R FOG
6HR MIN TEMP:  47; 6HR MAX TEMP:  48; 6HR PCP:  0.01;

DETROIT        DRIZZLE   49  47  93 NE6       29.93S FOG
6HR MIN TEMP:  48; 6HR MAX TEMP:  49; 6HR PCP:  0.01;

FLINT          CLOUDY    47  43  86 NE12      29.97R FOG
6HR MIN TEMP:  47; 6HR MAX TEMP:  48; 6HR PCP: TRACE;

GROSSE ILE     CLOUDY    48  46  93 NE13      29.90F FOG
HILLSDALE      CLOUDY    48  48 100 NE3       29.92R FOG
6HR MIN TEMP:  47; 6HR MAX TEMP:  48;

HOWELL         RAIN      46  46  99 NE5       29.95R

CITY           SKY/WX    TMP DP  RH WIND       PRES   REMARKS
JACKSON        CLOUDY    47  46  97 N6        29.94R FOG
6HR MIN TEMP:  47; 6HR MAX TEMP:  48; 6HR PCP:  0.03;

LAMBERTVILLE   FOG       49  48  95 CALM      29.93R VSB 1/4
6HR MIN TEMP:  49; 6HR MAX TEMP:  50;

LANSING        CLOUDY    45  44  97 NE9       29.96R FOG
6HR MIN TEMP:  44; 6HR MAX TEMP:  45; 6HR PCP:  0.04;

LAPEER         CLOUDY    44  43  97 NE7       29.97R FOG
6HR MIN TEMP:  43; 6HR MAX TEMP:  44; 6HR PCP:  0.01;

MASON          CLOUDY    45  44  96 NE6       29.95R FOG
MONROE         FOG       49  49 100 NE3       29.92R VSB 3/4
6HR MIN TEMP:  48; 6HR MAX TEMP:  49;

MT. CLEMENS    CLOUDY    47  47 100 NE8       29.93S FOG
6HR MIN TEMP:  46; 6HR MAX TEMP:  48; 6HR PCP:  0.07;

PONTIAC        LGT RAIN  47  46  97 N7        29.93R VSB 1
6HR MIN TEMP:  46; 6HR MAX TEMP:  47; 6HR PCP: TRACE;

PORT HOPE        N/A     42  40  92 NE14      30.01R
6HR MIN TEMP:  42; 6HR MAX TEMP:  44; 6HR PCP:  0.06;

PORT HURON     CLOUDY    45  45 100 N9        29.97R FOG
TRI CITIES     LGT RAIN  46  43  89 NE14      30.00R VSB 1
6HR MIN TEMP:  45; 6HR MAX TEMP:  47; 6HR PCP:  0.04;

MIDLAND        DRIZZLE   44  43  97 NE8       30.00S
6HR MIN TEMP:  42; 6HR MAX TEMP:  44;

TROY           CLOUDY    47  46  97 NE7       29.95S FOG
SAGINAW HB     LGT RAIN  45  43  93 NE13      29.99S
$$
MIZ043>046-050>051-056>058-064>065-071>073-077>080-011300-
SOUTHWEST LOWER MICHIGAN

CITY           SKY/WX    TMP DP  RH WIND       PRES   REMARKS
BATTLE CREEK   CLOUDY    46  45  96 NE8       29.94R FOG
6HR MIN TEMP:  46; 6HR MAX TEMP:  48; 6HR PCP:  0.01;

BENTON HARBOR  CLOUDY    49  46  90 NE8       29.92S
6HR MIN TEMP:  49; 6HR MAX TEMP:  50;

BIG RAPIDS     CLOUDY    44  40  85 NE5       30.01R
6HR MIN TEMP:  42; 6HR MAX TEMP:  44;

COLDWATER      CLOUDY    48  48 100 NE7       29.91F FOG
6HR MIN TEMP:  48; 6HR MAX TEMP:  48;

FREMONT        CLOUDY    44  43  97 N9        30.00R
HOLLAND        CLOUDY    46  44  93 NE6       29.97R FOG
6HR MIN TEMP:  45; 6HR MAX TEMP:  48;

GRAND RAPIDS   DRIZZLE   47  45  93 NE9       29.97R FOG
6HR MIN TEMP:  45; 6HR MAX TEMP:  47; 6HR PCP:  0.01;

IONIA          CLOUDY    44  43  99 NE10      29.96R FOG
6HR MIN TEMP:  42; 6HR MAX TEMP:  44;

KALAMAZOO      CLOUDY    47  45  93 NE5       29.94R FOG
6HR MIN TEMP:  47; 6HR MAX TEMP:  49; 6HR PCP: TRACE;

LUDINGTON      CLOUDY    42  40  89 NE6       30.03S
6HR MIN TEMP:  42; 6HR MAX TEMP:  44; 6HR PCP:  0.03;

MARSHALL       CLOUDY    46  46  97 NE3       29.93S FOG
6HR MIN TEMP:  46; 6HR MAX TEMP:  47;

MOUNT PLEASANT CLOUDY    43  42  97 NE8       30.00R FOG
6HR MIN TEMP:  41; 6HR MAX TEMP:  43;

MUSKEGON       CLOUDY    46  42  86 NE10      29.99R
6HR MIN TEMP:  44; 6HR MAX TEMP:  46; 6HR PCP: TRACE;

$$
MIZ016>042-011300-
NORTHERN LOWER MICHIGAN

CITY           SKY/WX    TMP DP  RH WIND       PRES   REMARKS
ALPENA         LGT RAIN  45  35  68 E7        30.08R
6HR MIN TEMP:  44; 6HR MAX TEMP:  47; 6HR PCP: TRACE;

BEAVER ISLAND  CLOUDY    45  34  65 E7        30.10R
6HR MIN TEMP:  41; 6HR MAX TEMP:  45;

BELLAIRE       DRIZZLE   48  36  63 NE5       30.08R
6HR MIN TEMP:  45; 6HR MAX TEMP:  50;

CADILLAC       DRIZZLE   41  35  77 N5        30.03R
CHARLEVOIX     CLOUDY    47  33  57 E6        30.11R
FRANKFORT      LGT RAIN  43  37  78 NE8       30.07R
GAYLORD        CLOUDY    45  36  70 E6        30.06R
6HR MIN TEMP:  43; 6HR MAX TEMP:  47; 6HR PCP: TRACE;

HARBOR SPRINGS CLOUDY    46  32  57 NE9       30.08S
HOUGHTON LAKE  CLOUDY    43  37  79 NE12      30.04R
6HR MIN TEMP:  41; 6HR MAX TEMP:  44; 6HR PCP:  0.04;

MANISTEE       CLOUDY    45  34  65 N5        30.06R
OSCODA         LGT RAIN  44  40  87 N10       30.04R
6HR MIN TEMP:  42; 6HR MAX TEMP:  45;

PELLSTON       CLOUDY    47  33  58 E8        30.10R
6HR MIN TEMP:  40; 6HR MAX TEMP:  47;

ROGERS CITY    CLOUDY    42  33  70 CALM      30.10R
TRAVERSE CITY  LGT RAIN  43  37  79 N5        30.07R
6HR MIN TEMP:  43; 6HR MAX TEMP:  49; 6HR PCP:  0.03;

$$
MIZ007>008-015-011300-
EASTERN UPPER MICHIGAN

CITY           SKY/WX    TMP DP  RH WIND       PRES   REMARKS
KINROSS          N/A     45  34  65 NE13      30.11S
6HR MIN TEMP:  39; 6HR MAX TEMP:  45;

MACKINAC ISLAN CLOUDY    45  32  62 NE7       30.10R
6HR MIN TEMP:  41; 6HR MAX TEMP:  45;

NEWBERRY       MOSUNNY   40  34  77 N5        30.13R
6HR MIN TEMP:  34; 6HR MAX TEMP:  40;

S. S. MARIE    MOSUNNY   47  31  53 NE9       30.13R
6HR MIN TEMP:  45; 6HR MAX TEMP:  48;

MUNISING         N/A     34  31  88 CALM      30.14S
6HR MIN TEMP:  31; 6HR MAX TEMP:  35;

$$
MIZ004>006-011>014-085-011300-
CENTRAL UPPER MICHIGAN

CITY           SKY/WX    TMP DP  RH WIND       PRES   REMARKS
MANISTIQUE     CLOUDY    40  34  79 N7        30.11S
6HR MIN TEMP:  37; 6HR MAX TEMP:  40;

ESCANABA       CLOUDY    43  34  70 N5        30.12R
6HR MIN TEMP:  39; 6HR MAX TEMP:  43;

MENOMINEE      CLOUDY    43  32  65 CALM      30.10S
6HR MIN TEMP:  43; 6HR MAX TEMP:  45;

SAWYER-GWINN   SUNNY     37  34  87 N10       30.14R WCI  30
$$
MIZ001>003-009>011-084-011300-
WESTERN UPPER MICHIGAN

CITY           SKY/WX    TMP DP  RH WIND       PRES   REMARKS
IRON MOUNTAIN  CLOUDY    39  33  79 NW7       30.12R WCI  34
6HR MIN TEMP:  37; 6HR MAX TEMP:  39;

HOUGHTON       MOSUNNY   41  34  76 E8        30.19R
6HR MIN TEMP:  39; 6HR MAX TEMP:  41;

COPPER HARBOR    N/A     40  37  89 E3        30.22R
6HR MIN TEMP:  36; 6HR MAX TEMP:  40;

IRONWOOD         N/A     36  36 100 N3        30.18R VSB<1/4
6HR MIN TEMP:  30; 6HR MAX TEMP:  36;

$$

ABBREVIATIONS USED IN REMARKS
   TC - TEMPERATURE IN CELSIUS
  WCI - WIND CHILL INDEX
   HX - HEAT INDEX
  VSB - VISIBILITY





USA.gov is the U.S. government's official web portal to all federal, state and local government web resources and services.